Location: Eppenbrunn
(49.1158°N, 7.5601°E)
Time: 14:02:40
(UTC+00:00)

MetOp-A - Pass Details

Date: 09 April 2020
Orbit: 819 x 821 km, 98.5° (Epoch: 02 June)

Event Time Altitude Azimuth Distance (km) Brightness Sun altitude
Exits shadow 19:13:31 - 154° (SSE) 2,871 6.5 -10.1°
Reaches altitude 10° 19:14:40 10° 153° (SSE) 2,413 6.1 -10.3°
Maximum altitude 19:19:59 69° 71° (ENE) 881 4.2 -11.0°
Drops below altitude 10° 19:25:19 10° 350° (N) 2,430 7.1 -11.8°
Sets 19:27:41 0° 348° (NNW) 3,367 7.9 -12.2°
